Regional Weather Roundup
Issued by NWS

Home | Current Version | Previous Version | Text Only | Print | Product List | Glossary Off
Versions: 1 2 3 4 5 6 7 8 9 10 11 12 13 14 15 16 17 18 19 20 21 22 23 24 25 26 27 28 29 30 31 32 33 34 35 36 37 38 39 40 41 42 43 44 45 46 47 48 49 50

847
ASUS44 KLIX 202210
RWRLA
LOUISIANA WEATHER ROUNDUP
NATIONAL WEATHER SERVICE NEW ORLEANS LA
500 PM CDT SUN APR 20 2014

NOTE: "FAIR" INDICATES FEW OR NO CLOUDS BELOW 12,000 FEET WITH NO
      SIGNIFICANT WEATHER AND/OR OBSTRUCTIONS TO VISIBILITY.
      SKY/WX - SKY CONDITION AND SIGNIFICANT WEATHER.
      TMP - AIR TEMPERATURE.    DP   - DEWPOINT TEMPERATURE.
      RH  - RELATIVE HUMIDITY.  PRES - PRESSURE.
      HX  - HEAT INDEX.         WCI  - WIND CHILL INDEX.

*  THESE STATIONS ARE NOT NWS OR FAA STATIONS AND ARE NOT UNDER
   NWS QUALITY CONTROL.

LAZ040-048-061>063-065-066-069-202300-
SOUTHEAST LOUISIANA

CITY           SKY/WX    TMP DP  RH WIND       PRES   REMARKS
N.O. AUDUBON   NOT AVBL
N.O. INTL ARPT MOSUNNY   80  50  34 E3        30.10F
N.O. LAKEFRONT SUNNY     77  56  48 W5        30.11F
N.O. DOWNTOWN* FAIR      82  48  30 NW6       30.11F
SLIDELL        SUNNY     80  56  43 S5        30.09S
BATON ROUGE    SUNNY     84  49  29 VRB3      30.09F
BOOTHVILLE     SUNNY     70  59  68 E5        30.12F
BELLE CHASSE   MOSUNNY   79  52  39 CALM      30.09F
BOGALUSA*        N/A     83  46  26 E8        30.11F
GALLIANO*      CLEAR     78  61  56 E9        30.11F
NEW ROADS*     FAIR      81  51  34 CALM      30.09F
GONZALES*      FAIR      81  51  34 CALM      30.09F
HAMMOND*       SUNNY     84  50  30 S10       30.10F
HOUMA*         MOSUNNY   79  59  50 S6        30.10
PORT FOURCHON* CLEAR     72  61  68 SE9       30.14F

$$

LAZ041-044-053-054-202300-
SOUTHWEST LOUISIANA

CITY           SKY/WX    TMP DP  RH WIND       PRES   REMARKS
LAKE CHARLES   SUNNY     79  54  41 S10       30.09F
LAFAYETTE      SUNNY     81  55  40 S6        30.09F
PATTERSON      SUNNY     81  55  41 S7        30.14F
SALT POINT       N/A     77  65  66 VRB3      30.10F
NEW IBERIA     SUNNY     81  55  40 S9        30.10F
CHENAULT AIRPK MOSUNNY   81  54  39 SW12      30.10F

$$

LAZ027-028-202300-
CENTRAL LOUISIANA

CITY           SKY/WX    TMP DP  RH WIND       PRES   REMARKS
FORT POLK      MOSUNNY   81  54  39 S9        30.07F
ALEXANDRIA INT SUNNY     82  53  36 VRB6      30.06F
ALEXANDRIA     SUNNY     83  52  34 CALM      30.08F

$$

LAZ001-002-202300-
NORTHWEST LOUISIANA

CITY           SKY/WX    TMP DP  RH WIND       PRES   REMARKS
SHREVEPORT     CLOUDY    80  54  40 S8        30.06F
BARKSDALE AFB  PTSUNNY   80  54  40 S7        30.06F
DTN SHREVEPORT CLOUDY    79  57  46 SE10      30.06F

$$

LAZ014-016-202300-
NORTHEAST LOUISIANA

CITY           SKY/WX    TMP DP  RH WIND       PRES   REMARKS
MONROE         SUNNY     81  51  35 VRB3      30.09F
TALLULAH       SUNNY     81  52  36 NE8       30.10F

$$




USA.gov is the U.S. government's official web portal to all federal, state and local government web resources and services.